sat.trackr.live / text

‹ back to catalog

STARLINK-36754

NORAD 67725 · 2026-026E

PAYLOAD ACTIVE UNKNOWN

§ Identity

Operator
Country
US
Launch date
2026-02-11
Launch site
AFWTR
Launch vehicle
Mass (kg)
RCS (m²)

Purposes: comms

External: N2YO · Heavens-Above · Gunter

§ Orbital elements

Epoch: 2026-09-19T02:31:13.953504Z

Period
93.91 min
Inclination
97.2850°
Eccentricity
0.0000190
Mean motion
15.33448657 rev/d
Perigee alt
465.4 km
Apogee alt
465.7 km
Semi-major
6,843.7 km
B*
5.3134e-4
RAAN
313.9076°
Arg perigee
5.9035°
Mean anomaly
354.2210°
Rev number
3,376

§ Raw data

STARLINK-367541 67725U 26026E   26262.10502261  .00017119  00000+0  53134-3 0  99952 67725  97.2850 313.9076 0000190   5.9035 354.2210 15.33448657 33763

JSON: /api/v1/satellites/67725 · /tle

For live sub-satellite position, see the globe view (requires WebGL).

§ Visibility from observer

Set your observer location to see the next 7 days of passes ≥ 10°. The values pass through the URL so the page stays shareable.

No JS? Fill the form by hand. The geolocation button needs JavaScript.